DW6358 Weather Reports


time (UTC)temp
F
wind
direction
speed
knots
gust
knots
rain 1hr
in
rain 24hr
in
rain mn
in
humidity
%
barometer
mb
20260508084821 63 217 2.6 10.4 0.00 0.00 0.00 68 1016.1
20260508084318 62 269 4.3 10.4 0.00 0.00 0.00 68 1016.1
20260508083816 62 158 3.5 7.0 0.00 0.00 0.00 69 1016.1
20260508083315 62 81 2.6 6.1 0.00 0.00 0.00 70 1016.2
20260508082831 61 226 3.5 6.1 0.00 0.00 0.00 70 1016.1
20260508082327 61 132 3.5 4.3 0.00 0.00 0.00 71 1016.1
20260508081825 60 285 0.9 4.3 0.00 0.00 0.00 72 1016.1
20260508081321 60 278 0.9 6.1 0.00 0.00 0.00 72 1016.2
20260508080818 59 295 2.6 6.1 0.00 0.00 0.00 72 1016.1
20260508080335 59 133 2.6 5.2 0.00 0.00 0.00 74 1016.2
20260508075827 59 136 2.6 5.2 0.00 0.00 0.00 75 1016.1
20260508075343 58 164 0.9 4.3 0.00 0.00 0.00 75 1016.2
20260508074821 58 130 1.7 6.1 0.00 0.00 0.00 76 1016.2
20260508074319 58 250 3.5 6.1 0.00 0.00 0.00 77 1016.2
20260508073816 58 271 0.9 4.3 0.00 0.00 0.00 78 1016.1
20260508073314 58 140 1.7 4.3 0.00 0.00 0.00 80 1016.2
20260508072851 57 236 0.9 3.5 0.00 0.00 0.00 82 1016.3
20260508072326 57 141 1.7 4.3 0.00 0.00 0.00 82 1016.2
20260508071824 56 213 1.7 4.3 0.00 0.00 0.00 82 1016.2
20260508071320 56 193 1.7 5.2 0.00 0.00 0.00 83 1016.1
20260508070818 56 342 0.9 4.3 0.00 0.00 0.00 83 1016.1
20260508070316 56 280 0.9 3.5 0.00 0.00 0.00 83 1016.1
20260508065813 56 251 1.7 3.5 0.00 0.00 0.00 83 1016.0
20260508065331 56 333 0.0 3.5 0.00 0.00 0.00 83 1015.9
20260508064827 56 328 0.9 4.3 0.00 0.00 0.00 83 1015.9
20260508064326 55 333 1.7 4.3 0.00 0.00 0.00 83 1015.9
20260508063824 55 332 0.9 4.3 0.00 0.00 0.00 83 1016.0
20260508063323 55 330 0.9 3.5 0.00 0.00 0.00 83 1015.9
20260508062840 55 164 0.9 3.5 0.00 0.00 0.00 83 1015.9
20260508062319 55 116 0.9 2.6 0.00 0.00 0.00 83 1015.9
20260508061830 55 310 0.9 2.6 0.00 0.00 0.00 83 1015.8
20260508061329 55 322 0.9 2.6 0.00 0.00 0.00 83 1015.8
20260508060827 55 311 0.9 2.6 0.00 0.00 0.00 83 1015.8
20260508060327 55 38 0.9 2.6 0.00 0.00 0.00 83 1015.8
20260508055824 55 333 0.9 2.6 0.00 0.00 0.00 83 1015.7
20260508055341 55 122 0.9 2.6 0.00 0.00 0.00 83 1015.6
20260508054817 55 297 0.0 2.6 0.00 0.00 0.00 83 1015.5
20260508054316 55 323 0.0 2.6 0.00 0.00 0.00 83 1015.5
20260508053814 55 283 0.9 2.6 0.00 0.00 0.00 83 1015.5
20260508053333 55 333 0.0 2.6 0.00 0.00 0.00 83 1015.5
20260508052829 55 129 0.9 2.6 0.00 0.00 0.00 83 1015.4
20260508052349 55 295 0.0 2.6 0.00 0.00 0.00 84 1015.4
20260508051825 55 303 0.9 5.2 0.00 0.00 0.00 84 1015.4
20260508051324 55 354 0.9 5.2 0.00 0.00 0.00 84 1015.3
20260508050822 55 323 0.9 2.6 0.00 0.00 0.00 84 1015.3
20260508050357 55 338 0.0 2.6 0.00 0.00 0.00 83 1015.2
20260508045814 55 346 0.9 2.6 0.00 0.00 0.00 83 1015.1
20260508045330 55 340 0.0 2.6 0.00 0.00 0.00 82 1015.0
20260508044828 55 40 0.9 1.7 0.00 0.00 0.00 82 1015.1
20260508044325 55 330 0.0 2.6 0.00 0.00 0.00 82 1015.1
20260508043823 56 307 0.9 3.5 0.00 0.00 0.00 82 1015.2
20260508043341 55 160 1.7 4.3 0.00 0.00 0.00 82 1015.3
20260508042816 55 2 1.7 4.3 0.00 0.00 0.00 81 1015.3
20260508042312 55 105 2.6 6.1 0.00 0.00 0.00 80 1015.4
20260508041851 55 53 2.6 7.8 0.00 0.00 0.00 80 1015.4
20260508041329 55 159 3.5 7.8 0.00 0.00 0.00 80 1015.3
20260508040824 55 168 1.7 4.3 0.00 0.00 0.00 81 1015.4
20260508040324 55 298 0.9 3.5 0.00 0.00 0.00 81 1015.3
20260508035820 55 131 0.9 3.5 0.00 0.00 0.00 80 1015.2
20260508035318 55 355 0.9 3.5 0.00 0.00 0.00 80 1015.3
20260508034816 55 338 0.9 3.5 0.00 0.00 0.00 80 1015.4
20260508034314 55 354 0.0 3.5 0.00 0.00 0.00 80 1015.4
20260508033831 55 165 0.9 3.5 0.00 0.00 0.00 79 1015.4
20260508033331 55 317 0.9 2.6 0.00 0.00 0.00 79 1015.4
20260508032827 55 347 0.9 3.5 0.00 0.00 0.00 79 1015.3
20260508032348 55 1 0.9 3.5 0.00 0.00 0.00 79 1015.2
20260508031824 55 332 0.9 3.5 0.00 0.00 0.00 79 1015.2
20260508031324 55 263 1.7 4.3 0.00 0.00 0.00 79 1015.2
20260508030822 55 13 1.7 4.3 0.00 0.00 0.00 79 1015.2
20260508030321 55 299 0.9 3.5 0.00 0.00 0.00 79 1015.3
20260508025818 55 323 0.9 3.5 0.00 0.00 0.00 79 1015.4
20260508025316 55 276 0.9 3.5 0.00 0.00 0.00 79 1015.5
20260508024813 55 321 1.7 3.5 0.00 0.00 0.00 79 1015.5
20260508024332 55 278 1.7 3.5 0.00 0.00 0.00 79 1015.5
20260508023328 55 16 1.7 4.3 0.00 0.00 0.00 79 1015.5
20260508022840 55 324 0.9 3.5 0.00 0.00 0.00 79 1015.6
20260508022317 55 83 0.9 2.6 0.00 0.00 0.00 79 1015.7
20260508021814 55 339 0.9 3.5 0.00 0.00 0.00 79 1015.8
20260508021351 56 347 0.9 3.5 0.00 0.00 0.00 78 1015.7
20260508020828 56 17 0.9 3.5 0.00 0.00 0.00 78 1015.8
20260508020339 56 352 0.9 3.5 0.00 0.00 0.00 78 1015.8
20260508015822 56 314 0.9 3.5 0.00 0.00 0.00 78 1015.9
20260508015321 56 27 0.9 3.5 0.00 0.00 0.00 78 1015.9
20260508014819 56 343 0.9 3.5 0.00 0.00 0.00 78 1016.0
20260508014313 56 74 0.9 3.5 0.00 0.00 0.00 78 1016.1
20260508013812 56 3 0.9 3.5 0.00 0.00 0.00 78 1016.0
20260508013331 56 297 0.9 3.5 0.00 0.00 0.00 78 1016.1
20260508012826 56 15 0.9 3.5 0.00 0.00 0.00 78 1016.1
20260508012324 56 302 0.9 2.6 0.00 0.00 0.00 78 1016.2
20260508011820 56 292 0.9 2.6 0.00 0.00 0.00 77 1016.3
20260508011339 56 131 0.9 4.3 0.00 0.00 0.00 77 1016.4
20260508010814 56 11 0.9 3.5 0.00 0.00 0.00 76 1016.4
20260508010332 57 285 0.9 1.7 0.00 0.00 0.00 76 1016.5
20260508005827 57 344 0.0 1.7 0.00 0.00 0.00 75 1016.6
20260508005324 57 127 0.9 1.7 0.00 0.00 0.00 75 1016.6
20260508004819 57 332 0.0 0.9 0.00 0.00 0.00 75 1016.6
20260508004317 58 335 0.0 0.9 0.00 0.00 0.00 74 1016.6
20260508003816 58 335 0.0 0.9 0.00 0.00 0.00 74 1016.6
20260508003314 58 284 0.0 1.7 0.00 0.00 0.00 73 1016.6
20260508002829 58 271 0.9 1.7 0.00 0.00 0.00 72 1016.7
20260508002327 58 303 0.0 1.7 0.00 0.00 0.00 72 1016.8
20260508001842 58 313 0.0 1.7 0.00 0.00 0.00 72 1016.6
20260508001319 58 328 0.0 2.6 0.00 0.00 0.00 72 1016.5
20260508000837 58 323 0.0 3.5 0.00 0.00 0.00 73 1016.5
20260508000315 58 314 0.9 3.5 0.00 0.00 0.00 72 1016.5
20260507235839 58 335 0.9 2.6 0.00 0.00 0.00 72 1016.6
20260507235316 58 316 0.9 2.6 0.00 0.00 0.00 72 1016.6
20260507234834 58 336 0.9 2.6 0.00 0.00 0.00 71 1016.6
20260507234329 58 329 0.0 1.7 0.00 0.00 0.00 71 1016.6
20260507233846 58 327 0.0 1.7 0.00 0.00 0.00 71 1016.8
20260507233324 58 302 0.0 1.7 0.00 0.00 0.00 72 1016.8
20260507232821 58 324 0.0 3.5 0.00 0.00 0.00 72 1016.8
20260507232318 58 303 0.0 1.7 0.00 0.00 0.00 73 1016.9
20260507231816 58 303 0.9 1.7 0.00 0.00 0.00 72 1016.9
20260507231313 58 322 0.0 1.7 0.00 0.00 0.00 72 1017.0
20260507230830 59 332 0.0 3.5 0.00 0.00 0.00 73 1017.0
20260507230328 58 326 2.6 3.5 0.00 0.00 0.00 72 1016.8
20260507225838 59 327 0.0 0.9 0.00 0.00 0.00 71 1016.9
20260507225315 59 327 0.0 2.6 0.00 0.00 0.00 71 1017.1
20260507224814 59 327 1.7 2.6 0.00 0.00 0.00 71 1016.9
20260507224313 59 330 0.9 3.5 0.00 0.00 0.00 72 1016.9
20260507223813 59 317 1.7 5.2 0.00 0.00 0.00 72 1016.9
20260507222829 59 324 3.5 5.2 0.00 0.00 0.00 73 1016.9
20260507222326 59 325 3.5 5.2 0.00 0.00 0.00 72 1017.1
20260507221823 59 340 2.6 5.2 0.00 0.00 0.00 72 1017.2
20260507221338 59 330 2.6 5.2 0.00 0.00 0.00 72 1017.3
20260507220814 59 327 4.3 5.2 0.00 0.00 0.00 71 1017.4
20260507220314 59 354 3.5 4.3 0.00 0.00 0.00 72 1017.4
20260507215818 59 322 3.5 5.2 0.00 0.00 0.00 71 1017.4
20260507215315 59 326 4.3 6.1 0.00 0.00 0.00 69 1017.4
20260507214852 59 326 4.3 5.2 0.00 0.00 0.00 70 1017.5
20260507214329 59 341 2.6 5.2 0.00 0.00 0.00 70 1017.5
20260507213826 59 316 4.3 5.2 0.00 0.00 0.00 71 1017.4
20260507213325 59 340 2.6 4.3 0.00 0.00 0.00 72 1017.6
20260507212842 59 334 1.7 3.5 0.00 0.00 0.00 71 1017.9
20260507212319 59 324 0.9 2.6 0.00 0.00 0.00 72 1017.9
20260507211818 59 326 0.0 2.6 0.00 0.00 0.00 71 1018.0
20260507211316 59 345 1.7 5.2 0.00 0.00 0.00 72 1017.8
20260507210813 59 351 1.7 5.2 0.00 0.00 0.00 70 1017.8
20260507210333 59 334 1.7 4.3 0.00 0.00 0.00 72 1017.8
20260507205830 59 350 1.7 5.2 0.00 0.00 0.00 72 1017.7
20260507205328 59 309 0.9 5.2 0.00 0.00 0.00 71 1017.7
20260507204826 59 360 1.7 5.2 0.00 0.00 0.00 71 1017.8
20260507204324 59 342 2.6 5.2 0.00 0.00 0.00 71 1017.7
20260507203823 59 10 1.7 5.2 0.00 0.00 0.00 71 1017.7
20260507203322 59 342 3.5 5.2 0.00 0.00 0.00 71 1017.7
20260507202819 59 342 1.7 5.2 0.00 0.00 0.00 73 1017.6
20260507202316 59 312 3.5 5.2 0.00 0.00 0.00 73 1017.6
20260507201814 59 343 3.5 7.8 0.00 0.00 0.00 73 1017.4
20260507201332 59 11 3.5 7.8 0.00 0.00 0.00 73 1017.4
20260507200831 59 333 2.6 4.3 0.00 0.00 0.00 72 1017.4
20260507200329 59 316 1.7 4.3 0.00 0.00 0.00 72 1017.5
20260507195827 59 321 1.7 4.3 0.00 0.00 0.00 72 1017.5
20260507195407 59 343 0.9 6.1 0.00 0.00 0.00 71 1017.4
20260507194819 59 6 3.5 7.0 0.00 0.00 0.00 73 1017.4
20260507194336 59 13 3.5 7.0 0.00 0.00 0.00 73 1017.3
20260507193830 59 352 3.5 5.2 0.00 0.00 0.00 72 1017.3
20260507193330 59 314 2.6 6.1 0.00 0.00 0.00 72 1017.2
20260507192825 59 354 3.5 6.1 0.00 0.00 0.00 71 1017.2
20260507192322 59 325 1.7 5.2 0.00 0.00 0.00 72 1017.2
20260507191841 59 345 1.7 5.2 0.00 0.00 0.00 72 1017.2
20260507191318 60 349 1.7 3.5 0.00 0.00 0.00 72 1017.2
20260507190816 60 336 1.7 5.2 0.00 0.00 0.00 71 1017.1
20260507190356 60 359 1.7 5.2 0.00 0.00 0.00 70 1017.1
20260507185813 60 26 2.6 5.2 0.00 0.00 0.00 70 1017.1
20260507185330 60 338 2.6 5.2 0.00 0.00 0.00 71 1017.1
20260507184828 60 321 1.7 6.1 0.00 0.00 0.00 70 1017.1
20260507184347 60 333 1.7 6.1 0.00 0.00 0.00 70 1017.1
20260507183843 60 356 3.5 6.1 0.00 0.00 0.00 69 1017.0
20260507183320 61 322 3.5 6.1 0.00 0.00 0.00 69 1017.1
20260507182835 61 6 1.7 5.2 0.00 0.00 0.00 68 1017.0
20260507182314 61 326 0.9 6.1 0.00 0.00 0.00 68 1017.0
20260507181831 61 323 2.6 6.1 0.00 0.00 0.00 68 1017.1
20260507181348 61 32 1.7 5.2 0.00 0.00 0.00 67 1017.1
20260507180842 61 302 2.6 6.1 0.00 0.00 0.00 69 1017.0
20260507180320 61 314 3.5 6.1 0.00 0.00 0.00 68 1017.0
20260507175823 61 333 2.6 5.2 0.00 0.00 0.00 68 1017.0
20260507175323 61 328 2.6 5.2 0.00 0.00 0.00 67 1016.9
20260507174821 61 350 4.3 6.1 0.00 0.00 0.00 69 1016.9
20260507174318 61 346 2.6 6.1 0.00 0.00 0.00 69 1016.9
20260507173837 61 342 2.6 6.1 0.00 0.00 0.00 71 1016.9
20260507173331 61 323 4.3 6.1 0.00 0.00 0.00 72 1016.9
20260507172828 61 342 3.5 6.1 0.00 0.00 0.00 71 1017.0
20260507172328 61 339 4.3 6.1 0.00 0.00 0.00 72 1017.0
20260507171826 61 333 4.3 7.0 0.00 0.00 0.00 70 1017.0
20260507171324 61 335 3.5 7.0 0.00 0.00 0.00 72 1016.9
20260507170821 61 316 4.3 7.0 0.00 0.00 0.00 72 1016.9
20260507170340 61 351 4.3 7.0 0.00 0.00 0.00 71 1016.9
20260507165818 61 348 4.3 7.8 0.00 0.00 0.00 72 1016.9
20260507165313 61 314 5.2 6.1 0.00 0.00 0.00 72 1016.9
20260507164831 61 316 5.2 7.0 0.00 0.00 0.00 72 1017.0
20260507164329 61 326 5.2 7.0 0.00 0.00 0.00 70 1017.0
20260507163844 61 3 4.3 7.8 0.00 0.00 0.00 72 1016.9
20260507163322 61 321 6.1 7.8 0.00 0.00 0.00 72 1016.9
20260507162840 62 320 6.1 7.8 0.00 0.00 0.00 69 1016.8
20260507162315 62 305 4.3 7.8 0.00 0.00 0.00 70 1016.9
20260507161813 62 321 4.3 7.8 0.00 0.00 0.00 71 1016.9
20260507160826 62 345 4.3 8.7 0.00 0.00 0.00 71 1017.0
20260507160326 62 336 6.1 8.7 0.00 0.00 0.00 72 1017.0
20260507155822 62 354 5.2 8.7 0.00 0.00 0.00 71 1017.0
20260507155318 62 335 6.1 8.7 0.00 0.00 0.00 70 1017.0
20260507154815 62 349 5.2 8.7 0.00 0.00 0.00 71 1016.9
20260507154353 62 339 5.2 8.7 0.00 0.00 0.00 70 1016.9
20260507153850 63 348 5.2 7.0 0.00 0.00 0.00 70 1017.0
20260507153328 62 295 4.3 7.8 0.00 0.00 0.00 70 1017.0
20260507152826 62 347 5.2 7.8 0.00 0.00 0.00 70 1017.0
20260507152324 63 335 4.3 7.8 0.00 0.00 0.00 69 1017.0
20260507151822 63 347 6.1 7.8 0.00 0.00 0.00 69 1017.1
20260507151319 63 352 4.3 7.8 0.00 0.00 0.00 71 1017.1
20260507150819 63 335 4.3 8.7 0.00 0.00 0.00 70 1017.1
20260507150338 63 332 5.2 8.7 0.00 0.00 0.00 69 1017.3
20260507145831 63 314 4.3 7.8 0.00 0.00 0.00 70 1017.3
20260507145329 63 6 3.5 7.8 0.00 0.00 0.00 70 1017.3
20260507144827 62 345 5.2 7.8 0.00 0.00 0.00 70 1017.2
20260507144324 62 324 5.2 7.0 0.00 0.00 0.00 70 1017.3
20260507143822 63 340 4.3 8.7 0.00 0.00 0.00 70 1017.3
20260507143321 63 8 4.3 8.7 0.00 0.00 0.00 71 1017.4
20260507142818 62 345 5.2 7.0 0.00 0.00 0.00 71 1017.5
20260507142316 63 332 4.3 7.0 0.00 0.00 0.00 70 1017.5
20260507141814 62 338 4.3 7.0 0.00 0.00 0.00 71 1017.5
20260507141331 62 19 3.5 7.8 0.00 0.00 0.00 71 1017.5
20260507140830 62 320 5.2 7.8 0.00 0.00 0.00 71 1017.5
20260507140322 62 331 6.1 7.8 0.00 0.00 0.00 71 1017.6
20260507135848 62 358 4.3 9.6 0.00 0.00 0.00 72 1017.6
20260507135324 62 356 7.0 9.6 0.00 0.00 0.00 72 1017.6
20260507134823 62 324 4.3 7.8 0.00 0.00 0.00 73 1017.6
20260507134320 62 334 6.1 8.7 0.00 0.00 0.00 73 1017.6
20260507133818 62 333 6.1 8.7 0.00 0.00 0.00 72 1017.7
20260507133337 62 326 4.3 7.8 0.00 0.00 0.00 73 1017.7
20260507132813 62 340 5.2 7.8 0.00 0.00 0.00 72 1017.8
20260507132331 62 338 5.2 7.8 0.00 0.00 0.00 73 1017.8
20260507131829 62 330 5.2 8.7 0.00 0.00 0.00 74 1017.7
20260507131325 61 329 7.0 8.7 0.00 0.00 0.00 74 1017.7
20260507130844 61 326 7.0 8.7 0.00 0.00 0.00 72 1017.7
20260507130323 62 315 5.2 7.8 0.00 0.00 0.00 73 1017.7
20260507125905 62 338 5.2 8.7 0.00 0.00 0.00 73 1017.8
20260507125321 62 318 4.3 8.7 0.00 0.00 0.00 73 1017.8
20260507124836 62 345 5.2 7.8 0.00 0.00 0.00 74 1017.9
20260507124313 62 350 5.2 7.8 0.00 0.00 0.00 73 1017.9
20260507123831 62 330 5.2 7.8 0.00 0.00 0.00 73 1017.9
20260507123331 62 11 5.2 7.8 0.00 0.00 0.00 75 1017.9
20260507122849 62 359 4.3 8.7 0.00 0.00 0.00 75 1017.9
20260507122325 62 339 6.1 8.7 0.00 0.00 0.00 74 1018.0
20260507121844 62 350 5.2 8.7 0.00 0.00 0.00 75 1018.1
20260507121321 62 317 6.1 7.8 0.00 0.00 0.00 71 1018.1
20260507120820 62 307 5.2 7.0 0.00 0.00 0.00 71 1018.2
20260507120321 62 321 4.3 7.0 0.00 0.00 0.00 72 1018.1
20260507115825 62 335 4.3 7.0 0.00 0.00 0.00 72 1018.1
20260507115325 62 348 4.3 7.0 0.00 0.00 0.00 71 1018.1
20260507114823 62 283 4.3 7.8 0.00 0.00 0.00 71 1018.2
20260507114320 62 319 5.2 7.8 0.00 0.00 0.00 71 1018.2
20260507113819 62 353 4.3 7.0 0.00 0.00 0.00 71 1018.2
20260507113339 62 352 3.5 6.1 0.00 0.00 0.00 72 1018.2
20260507112814 61 360 3.5 7.8 0.00 0.00 0.00 72 1018.2
20260507111830 62 329 4.3 7.8 0.00 0.00 0.00 73 1018.3
20260507111327 61 317 5.2 7.0 0.00 0.00 0.00 72 1018.2
20260507110825 61 329 5.2 7.8 0.00 0.00 0.00 74 1018.3
20260507110324 61 317 5.2 7.8 0.00 0.00 0.00 73 1018.2
20260507105822 61 329 6.1 7.8 0.00 0.00 0.00 72 1018.2
20260507105322 61 321 5.2 7.0 0.00 0.00 0.00 73 1018.2
20260507104819 61 329 5.2 7.8 0.00 0.00 0.00 73 1018.2
20260507104317 61 326 6.1 7.8 0.00 0.00 0.00 73 1018.3
20260507103813 61 317 5.2 7.0 0.00 0.00 0.00 73 1018.3
20260507103332 61 321 5.2 7.8 0.00 0.00 0.00 72 1018.3
20260507102827 61 326 6.1 8.7 0.00 0.00 0.00 72 1018.3
20260507102325 61 330 6.1 8.7 0.00 0.00 0.00 74 1018.2
20260507101823 60 331 5.2 7.0 0.00 0.00 0.00 74 1018.2
20260507101322 60 330 5.2 7.0 0.00 0.00 0.00 73 1018.1
20260507100817 60 329 5.2 7.8 0.00 0.00 0.00 74 1018.1
20260507100336 60 335 6.1 7.8 0.00 0.00 0.00 74 1018.0
20260507095826 60 322 6.1 7.0 0.00 0.00 0.00 75 1018.1
20260507095324 60 323 5.2 8.7 0.00 0.00 0.00 76 1018.0
20260507094841 60 326 6.1 8.7 0.00 0.00 0.00 75 1018.0
20260507094318 60 327 7.0 7.8 0.00 0.00 0.00 74 1017.9
20260507093848 60 328 7.0 7.8 0.00 0.00 0.00 74 1017.9
20260507093327 60 333 6.1 7.8 0.00 0.00 0.00 74 1017.9
20260507092822 60 332 4.3 6.1 0.00 0.00 0.00 75 1017.9
20260507092322 60 332 4.3 7.0 0.00 0.00 0.00 75 1017.9
20260507091820 60 336 5.2 7.8 0.00 0.00 0.00 74 1017.9
20260507091319 60 337 5.2 7.8 0.00 0.00 0.00 74 1018.0
20260507090816 60 349 5.2 7.8 0.00 0.00 0.00 75 1018.0
20260507090316 60 330 5.2 7.8 0.00 0.00 0.00 76 1017.9
20260507085841 60 313 5.2 7.8 0.00 0.00 0.00 75 1017.9
20260507085317 60 323 5.2 7.0 0.00 0.00 0.00 76 1017.8